Skip Page Navigation
NASA JPL Caltech
NASA Logo - Jet Propulsion Laboratory + View the NASA Portal
+ Center for Near-Earth Object Studies
JPL Home Earth Solar System Stars & Galaxies Technology
JPL Solar System Dynamics
BODIES ORBITS EPHEMERIDES TOOLS PHYSICAL DATA DISCOVERY FAQ SITE MAP
JPL Small-Body Database Browser
Search: [ help ]  
27484 (2000 GN94)
Classification: Main-belt Asteroid          SPK-ID: 2027484
Ephemeris | Orbit Diagram | Orbital Elements | Mission Design | Physical Parameters | Discovery Circumstances ]

[ show orbit diagram ]
Orbital Elements at Epoch 2459000.5 (2020-May-31.0) TDB
Reference: JPL 33 (heliocentric ecliptic J2000)
 Element Value Uncertainty (1-sigma)   Units 
e .08697210660804736 3.9012e-08  
a 3.048257065521858 1.7457e-08 au
q 2.783143727050557 1.1648e-07 au
i 16.789056317605 4.3436e-06 deg
node 146.3776961056329 1.2157e-05 deg
peri 186.7860419668986 2.4831e-05 deg
M 166.5956760437211 2.3244e-05 deg
tp 2458100.925709474672
(2017-Dec-13.42570947)
0.00012364 TDB
period 1943.908463171208
5.32
1.6699e-05
4.572e-08
d
yr
n .1851939053821041 1.5909e-09 deg/d
Q 3.313370403993159 1.8976e-08 au
  Orbit Determination Parameters
   # obs. used (total)      2176  
   data-arc span      24926 days (68.24 yr)  
   first obs. used      1952-01-30  
   last obs. used      2020-04-28  
   planetary ephem.      DE431  
   SB-pert. ephem.      SB431-N16  
   condition code      0  
   norm. resid. RMS      .45547  
   source      ORB  
   producer      Otto Matic  
   solution date      2020-May-20 06:11:23  

Additional Information
 Earth MOID = 1.7729 au 
 Jupiter MOID = 2.0563 au 
 T_jup = 3.167 
[ show covariance matrix ]

Ephemeris | Orbit Diagram | Orbital Elements | Mission Design | Physical Parameters | Discovery Circumstances ]

Physical Parameter Table
Parameter Symbol Value Units Sigma Reference Notes
absolute magnitude H 12.4   n/a MPO502363  

27484 (2000 GN94)          Discovered 2000-Apr-05 by LINEAR at Socorro
Reference: 20010804/Numbers.arcLast Updated: 2004-04-19

Alternate Designations
 2000 GN94 = 1994 CX15 
Ephemeris | Orbit Diagram | Orbital Elements | Mission Design | Physical Parameters | Discovery Circumstances ]
ABOUT SSD CREDITS/AWARDS PRIVACY/COPYRIGHT GLOSSARY LINKS
FirstGov 2020-Aug-03 13:31 UT
(server date/time)  
NASA Home Page
Site Manager:   Ryan S. Park
Webmaster  Alan B. Chamberlin